Simultaneous Nadir Overpasses (SNOs) Predictions

Prediction of SNOs between GOES-15 and NPP Satellite Orbit:

Table of predicted SNOs for the next 14.0 days since TLE Epoch: 11/14/2014
Index Date Time (GOES-15) GOES-15 Lat,Lon NPP Lat,Lon Distance(km) Time Diff (sec)
1 11/15/2014 22:29:51 -0.03,-134.42 -0.04,-134.44 3.13 80
2 11/18/2014 10:32:53 0.01,-134.31 0.21,-135.19 100.18 80
3 11/19/2014 10:16:48 0.03,-134.26 -0.78,-130.66 410.48 80
4 11/20/2014 22:36:03 0.00,-134.16 -0.42,-135.96 206.40 80
5 11/21/2014 22:19:58 -0.01,-134.10 0.58,-131.43 304.24 80
6 11/23/2014 10:39:05 -0.01,-134.04 0.58,-136.71 304.81 80
7 11/24/2014 10:22:59 0.00,-133.97 -0.41,-132.18 204.81 80
8 11/25/2014 22:42:15 0.02,-133.85 -0.77,-137.49 414.57 80
9 11/26/2014 22:26:08
